Change the Weather History Date:

Friday, August 16, 2013

  Actual Average Record
Temperature  
Mean Temperature 70 °F -  
Max Temperature 81 °F 78 °F 95 °F (2003)
Min Temperature 60 °F 58 °F 57 °F (1996)
Cooling Degree Days 6    
Growing Degree Days 20 (Base 50)    
Moisture  
Dew Point 55 °F    
Average Humidity 60    
Maximum Humidity 86    
Minimum Humidity 39    
Precipitation  
Precipitation 0.00 in - - ()
Sea Level Pressure  
Sea Level Pressure 30.16 in    
Wind  
Wind Speed 2 mph (SSW)    
Max Wind Speed 10 mph    
Max Gust Speed -    
Visibility 10 miles    
Events      
Averages and records for this station are not official NWS values.
T = Trace of Precipitation, MM = Missing Value Source: NWS Daily Summary

Daily Weather History Graph

Daily Weather History Graph

Search for Another Location

Airport or City:

Trip Planner

Search our weather history database for the weather conditions in past years. The results will help you decide how hot, cold, wet, or windy it might be!

Date:

Astronomy

Aug. 16, 2013 Rise Set
Actual Time 6:15 AM CDT 8:16 PM CDT
Civil Twilight 5:43 AM CDT 8:48 PM CDT
Nautical Twilight 5:04 AM CDT 9:26 PM CDT
Astronomical Twilight 4:21 AM CDT 10:09 PM CDT
Moon 4:41 PM CDT (8/16) 1:13 AM CDT (8/16)
Length of Visible Light 15h 04m
Length of Day
14h 00m
Waxing Gibbous, 75% of the Moon is Illuminated
Aug 16
Waxing Gibbous
Aug 20
Full
Aug 28
Last Quarter
Sep 5
New
Sep 12
First Quarter

Hourly Weather History & Observations

Time (CDT) Temp. Heat Index Dew Point Humidity Pressure Visibility Wind Dir Wind Speed Gust Speed Precip Events Conditions
12:53 AM 69.1 °F - 57.0 °F 65% 30.13 in 10.0 mi Calm Calm - N/A   Overcast
1:53 AM 66.0 °F - 55.9 °F 70% 30.13 in 10.0 mi Calm Calm - N/A   Mostly Cloudy
2:53 AM 64.9 °F - 57.0 °F 75% 30.13 in 10.0 mi Calm Calm - N/A   Mostly Cloudy
3:53 AM 62.1 °F - 55.0 °F 78% 30.13 in 10.0 mi SSW 3.5 mph - N/A   Clear
4:53 AM 62.1 °F - 54.0 °F 75% 30.14 in 10.0 mi Calm Calm - N/A   Clear
5:53 AM 61.0 °F - 54.0 °F 78% 30.16 in 10.0 mi Calm Calm - N/A   Clear
6:53 AM 60.1 °F - 55.9 °F 86% 30.17 in 10.0 mi Calm Calm - N/A   Clear
7:53 AM 64.0 °F - 55.9 °F 75% 30.18 in 10.0 mi Calm Calm - N/A   Clear
8:53 AM 68.0 °F - 57.9 °F 70% 30.19 in 10.0 mi Calm Calm - N/A   Clear
9:53 AM 71.1 °F - 57.0 °F 61% 30.19 in 10.0 mi Calm Calm - N/A   Clear
10:53 AM 75.0 °F - 55.9 °F 51% 30.19 in 10.0 mi SW 5.8 mph - N/A   Clear
11:53 AM 75.9 °F - 55.0 °F 48% 30.18 in 10.0 mi Variable 5.8 mph - N/A   Partly Cloudy
12:53 PM 77.0 °F - 55.9 °F 48% 30.18 in 10.0 mi SSW 10.4 mph - N/A   Partly Cloudy
1:53 PM 77.0 °F - 52.0 °F 42% 30.17 in 10.0 mi SW 5.8 mph - N/A   Scattered Clouds
2:53 PM 81.0 °F 80.7 °F 55.0 °F 41% 30.16 in 10.0 mi South 10.4 mph - N/A   Partly Cloudy
3:53 PM 78.1 °F - 53.1 °F 42% 30.15 in 10.0 mi Variable 4.6 mph - N/A   Scattered Clouds
4:53 PM 79.0 °F - 53.1 °F 40% 30.15 in 10.0 mi Variable 6.9 mph - N/A   Mostly Cloudy
5:53 PM 78.1 °F - 51.1 °F 39% 30.15 in 10.0 mi SSW 8.1 mph - N/A   Partly Cloudy
6:53 PM 77.0 °F - 51.1 °F 40% 30.15 in 10.0 mi South 8.1 mph - N/A   Clear
7:53 PM 73.9 °F - 52.0 °F 46% 30.16 in 10.0 mi SSW 3.5 mph - N/A   Clear
8:53 PM 71.1 °F - 53.1 °F 53% 30.16 in 10.0 mi SSW 3.5 mph - N/A   Clear
9:53 PM 66.9 °F - 55.9 °F 68% 30.17 in 10.0 mi Calm Calm - N/A   Clear
10:53 PM 64.9 °F - 57.9 °F 78% 30.17 in 10.0 mi Calm Calm - N/A   Clear
11:53 PM 64.0 °F - 57.0 °F 78% 30.17 in 10.0 mi Calm Calm - N/A   Clear